CAPE
7 8 13 75 76 4 2 18 32 50 111 73 49 53 0 0 0 0 0 0 0 1 4 6 34 201 179 123 78 70 8 4 9
8 12 4 5 2 11 45 44 68 92 112 29 20 32 0 0 0 0 0 0 0 0 0 2 6 4 4 11 9 11 7 3 4
8 9 6 23 34 63 64 73 83 99 71 20 17 19 0 0 0 0 0 0 0 0 0 0 0 0 3 3 2 1 1 1 1
6 16 34 27 32 42 57 56 53 43 18 0 0 0 0 0 0 0 0 0 0 0 0 0 0 0 0 0 0 0 0 0 0
73 68 92 39 28 24 17 9 0 0 0 0 0 0 0 0 0 0 0 0 0 0 0 0 0 0 0 0 0 0 0 0 0
0 0 24 49 24 11 6 5 0 0 0 0 0 0 0 0 0 0 0 0 0 0 0 0 0 0 0 0 0 0 0 0 0
0 0 0 37 13 5 0 0 0 0 0 0 0 0 0 0 0 0 0 0 0 0 0 0 0 0 0 0 0 0 0 0 0
0 0 0 0 0 0 0 0 0 0 0 0 0 0 0 0 0 0 0 0 0 1 18 0 0 0 0 0 0 0 0 0 0
27 1 0 0 0 0 0 0 0 0 0 0 0 0 0 0 0 0 0 0 50 26 19 73 109 38 3 0 0 0 0 0 0
34 31 0 0 0 0 0 0 0 0 0 0 0 0 0 0 0 0 0 0 65 71 59 54 77 152 238 120 47 12 18 0 0
84 38 1 0 0 0 0 0 0 0 0 0 0 0 0 0 0 0 0 0 8 66 69 81 84 109 127 103 102 105 97 39 21
122 20 0 0 0 0 0 0 0 0 0 0 0 0 0 0 0 1 1 11 34 30 51 78 140 146 90 76 90 113 107 113 114
31 0 0 0 0 0 0 0 0 0 0 0 2 7 7 7 27 7 15 35 30 28 42 104 114 96 91 109 120 123 61 80 111
61 0 0 0 0 17 37 41 64 65 18 16 18 20 40 28 11 23 23 34 44 57 59 56 46 70 77 102 94 49 9 1 4
112 10 2 0 61 112 113 13 62 77 96 67 66 42 20 12 5 0 0 2 21 60 77 72 61 70 55 42 23 15 1 1 1
198 137 161 221 288 208 196 271 160 181 138 99 12 2 1 0 0 0 0 0 12 53 79 70 81 13 2 0 0 0 0 0 0
407 370 439 448 433 359 359 318 301 254 95 24 15 1 0 0 0 0 0 0 9 32 40 59 44 26 2 1 0 0 0 0 0
400 382 381 527 473 376 315 216 187 96 13 1 6 9 1 0 0 1 4 3 10 16 23 29 32 16 22 14 5 0 0 0 1
340 345 449 493 391 386 330 221 28 47 88 0 0 0 8 12 4 0 7 9 13 13 12 14 19 31 30 19 6 0 0 0 1
233 283 227 248 338 442 377 200 40 0 0 0 0 0 0 0 6 2 0 5 23 13 14 17 25 36 31 24 11 0 0 0 1
CIN
0 0 0 -144 -128 0 0 -67 -76 -74 -91 -61 -67 -62 -1 0 0 0 0 0 0 0 0 0 -38 -45 -4 -2 -11 -14 0 -1 0
0 0 0 0 0 -50 -79 -86 -71 -97 -93 -92 -111 -91 0 0 0 0 0 0 0 0 0 0 0 0 -1 0 -1 -1 0 0 0
0 0 0 -103 -109 -81 -83 -62 -67 -94 -75 -138 -162 -142 0 0 0 0 0 0 0 0 0 0 0 0 0 0 0 0 0 0 0
0 -73 -181 -135 -143 -123 -101 -98 -95 -102 -136 0 0 0 0 0 0 0 0 0 0 0 0 0 0 0 0 0 0 0 0 0 0
-174 -194 -175 -163 -153 -158 -165 -182 0 0 0 0 0 0 0 0 0 0 0 0 0 0 0 0 0 0 0 0 0 0 0 0 0
0 0 -223 -214 -156 -175 -118 -127 0 0 0 0 0 0 0 0 0 0 0 0 0 0 0 0 0 0 0 0 0 0 0 0 0
0 0 0 -231 -141 -61 0 0 0 0 0 0 0 0 0 0 0 0 0 0 0 0 0 0 0 0 0 0 0 0 0 0 0
0 0 0 0 0 0 0 0 0 0 0 0 0 0 0 0 0 0 0 0 0 -1 -13 0 0 0 0 0 0 0 0 0 0
-196 -18 0 0 0 0 0 0 0 0 0 0 0 0 0 0 0 0 0 -1 -16 -10 -8 -1 -3 -16 -3 0 0 0 0 0 0
-176 -186 0 0 0 0 0 0 0 0 0 0 0 0 0 0 0 0 0 0 -43 -22 -12 -13 -11 -4 -4 0 0 -4 -10 0 0
-149 -189 -74 0 0 0 0 0 0 0 0 0 0 0 0 0 0 0 0 0 -50 -46 -27 -18 -14 -12 -2 -2 -1 -3 -2 -6 -3
-132 -219 0 0 0 0 0 0 0 0 0 0 0 0 0 0 0 -3 -1 -1 -2 -6 -43 -15 -32 -7 -6 -6 -8 -1 -1 -3 -2
-199 0 0 0 0 0 0 0 0 0 0 0 -2 -7 -17 -2 -31 0 -4 -5 -1 -6 -9 -55 -23 -21 -20 -16 -3 0 -2 -3 -3
-140 0 0 0 0 -115 -90 -75 -48 -33 -27 -34 -10 -43 -66 -19 -5 -13 -11 -9 -5 -10 -5 -6 -10 -10 -34 -20 -15 -11 -12 -2 -5
-98 -121 -55 0 -96 -52 -43 -49 -25 -39 -28 -28 -43 -60 -23 -16 -26 0 0 -7 -16 -6 -9 -10 -13 -10 -60 -49 -37 -27 0 0 0
-28 -46 -57 -41 -16 -35 -29 -4 -29 -32 -27 -44 -13 -15 -3 0 0 0 0 0 -27 -12 -8 -26 -14 0 0 0 0 0 0 0 0
-8 -13 -13 -10 -12 -12 -8 -10 -10 -14 -37 -8 -5 -2 0 0 0 0 0 0 -15 -6 -10 -1 -4 -6 -3 -1 0 0 0 0 0
-10 -13 -16 -14 -18 -23 -13 -18 -23 -55 -51 -10 -5 -4 -1 0 0 -2 -5 -3 -3 -3 -1 -1 -5 -6 -5 -3 -1 0 0 0 0
-44 -23 -17 -19 -23 -7 -1 -1 -80 -36 -30 -1 0 0 -6 0 -2 0 -6 -2 0 -1 0 -1 0 0 -1 -3 0 0 0 0 0
-114 -95 -42 -28 -23 -5 -2 -21 -77 0 0 0 0 0 0 0 -9 -1 0 -16 -10 -2 -7 -3 0 0 0 0 -1 0 0 0 0
Wind_Speed
nan nan nan nan nan nan nan nan nan nan 10 nan nan nan nan nan nan nan nan nan nan nan nan nan nan 22 24 23 nan nan nan nan nan
nan nan nan nan nan nan nan nan nan nan 8 nan nan nan nan nan nan nan nan nan nan nan nan nan nan nan nan nan nan nan nan nan nan
nan nan nan nan nan nan nan nan nan nan nan nan nan nan nan nan nan nan nan nan nan nan nan nan nan nan nan nan nan nan nan nan nan
nan nan nan nan nan nan nan nan nan nan nan nan nan nan nan nan nan nan nan nan nan nan nan nan nan nan nan nan nan nan nan nan nan
nan nan nan nan nan nan nan nan nan nan nan nan nan nan nan nan nan nan nan nan nan nan nan nan nan nan nan nan nan nan nan nan nan
nan nan nan nan nan nan nan nan nan nan nan nan nan nan nan nan nan nan nan nan nan nan nan nan nan nan nan nan nan nan nan nan nan
nan nan nan nan nan nan nan nan nan nan nan nan nan nan nan nan nan nan nan nan nan nan nan nan nan nan nan nan nan nan nan nan nan
nan nan nan nan nan nan nan nan nan nan nan nan nan nan nan nan nan nan nan nan nan nan nan nan nan nan nan nan nan nan nan nan nan
nan nan nan nan nan nan nan nan nan nan nan nan nan nan nan nan nan nan nan nan nan nan nan nan 30 nan nan nan nan nan nan nan nan
nan nan nan nan nan nan nan nan nan nan nan nan nan nan nan nan nan nan nan nan nan nan nan nan nan 30 31 28 nan nan nan nan nan
nan nan nan nan nan nan nan nan nan nan nan nan nan nan nan nan nan nan nan nan nan nan nan nan nan 31 30 24 23 25 nan nan nan
20 nan nan nan nan nan nan nan nan nan nan nan nan nan nan nan nan nan nan nan nan nan nan nan 31 30 nan nan nan 29 26 29 36
nan nan nan nan nan nan nan nan nan nan nan nan nan nan nan nan nan nan nan nan nan nan nan 31 30 nan nan 34 32 34 nan nan 31
nan nan nan nan nan nan nan nan nan nan nan nan nan nan nan nan nan nan nan nan nan nan nan nan nan nan nan 39 nan nan nan nan nan
29 nan nan nan nan 32 31 nan nan nan nan nan nan nan nan nan nan nan nan nan nan nan nan nan nan nan nan nan nan nan nan nan nan
32 34 36 35 35 35 35 36 34 32 33 nan nan nan nan nan nan nan nan nan nan nan nan nan nan nan nan nan nan nan nan nan nan
36 39 38 37 38 38 40 40 39 35 nan nan nan nan nan nan nan nan nan nan nan nan nan nan nan nan nan nan nan nan nan nan nan
43 42 44 46 45 38 42 42 40 nan nan nan nan nan nan nan nan nan nan nan nan nan nan nan nan nan nan nan nan nan nan nan nan
47 43 39 36 37 41 44 43 nan nan nan nan nan nan nan nan nan nan nan nan nan nan nan nan nan nan nan nan nan nan nan nan nan
53 54 38 31 25 34 39 43 nan nan nan nan nan nan nan nan nan nan nan nan nan nan nan nan nan nan nan nan nan nan nan nan nan
Wind_Direction
nan nan nan nan nan nan nan nan nan nan 279 nan nan nan nan nan nan nan nan nan nan nan nan nan nan 307 309 310 nan nan nan nan nan
nan nan nan nan nan nan nan nan nan nan 264 nan nan nan nan nan nan nan nan nan nan nan nan nan nan nan nan nan nan nan nan nan nan
nan nan nan nan nan nan nan nan nan nan nan nan nan nan nan nan nan nan nan nan nan nan nan nan nan nan nan nan nan nan nan nan nan
nan nan nan nan nan nan nan nan nan nan nan nan nan nan nan nan nan nan nan nan nan nan nan nan nan nan nan nan nan nan nan nan nan
nan nan nan nan nan nan nan nan nan nan nan nan nan nan nan nan nan nan nan nan nan nan nan nan nan nan nan nan nan nan nan nan nan
nan nan nan nan nan nan nan nan nan nan nan nan nan nan nan nan nan nan nan nan nan nan nan nan nan nan nan nan nan nan nan nan nan
nan nan nan nan nan nan nan nan nan nan nan nan nan nan nan nan nan nan nan nan nan nan nan nan nan nan nan nan nan nan nan nan nan
nan nan nan nan nan nan nan nan nan nan nan nan nan nan nan nan nan nan nan nan nan nan nan nan nan nan nan nan nan nan nan nan nan
nan nan nan nan nan nan nan nan nan nan nan nan nan nan nan nan nan nan nan nan nan nan nan nan 340 nan nan nan nan nan nan nan nan
nan nan nan nan nan nan nan nan nan nan nan nan nan nan nan nan nan nan nan nan nan nan nan nan nan 335 335 333 nan nan nan nan nan
nan nan nan nan nan nan nan nan nan nan nan nan nan nan nan nan nan nan nan nan nan nan nan nan nan 331 327 323 319 329 nan nan nan
264 nan nan nan nan nan nan nan nan nan nan nan nan nan nan nan nan nan nan nan nan nan nan nan 333 319 nan nan nan 298 298 337 336
nan nan nan nan nan nan nan nan nan nan nan nan nan nan nan nan nan nan nan nan nan nan nan 330 322 nan nan 303 300 296 nan nan 298
nan nan nan nan nan nan nan nan nan nan nan nan nan nan nan nan nan nan nan nan nan nan nan nan nan nan nan 295 nan nan nan nan nan
277 nan nan nan nan 268 268 nan nan nan nan nan nan nan nan nan nan nan nan nan nan nan nan nan nan nan nan nan nan nan nan nan nan
278 272 272 269 267 267 269 268 270 269 272 nan nan nan nan nan nan nan nan nan nan nan nan nan nan nan nan nan nan nan nan nan nan
277 272 270 267 263 266 267 269 265 268 nan nan nan nan nan nan nan nan nan nan nan nan nan nan nan nan nan nan nan nan nan nan nan
273 267 258 252 250 253 259 263 267 nan nan nan nan nan nan nan nan nan nan nan nan nan nan nan nan nan nan nan nan nan nan nan nan
279 273 265 264 258 259 259 263 nan nan nan nan nan nan nan nan nan nan nan nan nan nan nan nan nan nan nan nan nan nan nan nan nan
259 268 258 263 263 262 262 268 nan nan nan nan nan nan nan nan nan nan nan nan nan nan nan nan nan nan nan nan nan nan nan nan nan